Regional Weather Roundup
Issued by NWS Albany, NY

Home | Current Version | Previous Version | Graphics & Text | Print | Product List | Glossary Off
Versions: 1 2 3 4 5 6 7 8 9 10 11 12 13 14 15 16 17 18 19 20 21 22 23 24 25 26 27 28 29 30 31 32 33 34 35 36 37 38 39 40 41 42 43 44 45 46 47 48 49 50

000
ASUS41 KALY 270310
RWRALY

NEW YORK STATE HOURLY WEATHER ROUNDUP
NATIONAL WEATHER SERVICE ALBANY NY
1000 PM EST MON JAN 26 2015

NOTE: "FAIR" INDICATES FEW OR NO CLOUDS BELOW 12,000 FEET WITH NO
SIGNIFICANT WEATHER AND/OR NO OBSTRUCTIONS TO VISIBILITY.

NYZ032-033-038>043-046>054-057>066-NYZ062>081-270400-
EAST


CITY           SKY/WX    TMP DP  RH WIND       PRES   REMARKS
ALBANY         LGT SNOW  16   9  74 N10       29.98F WCI   4
GLENS FALLS    CLOUDY    15   3  59 N10       30.01F WCI   2
POUGHKEEPSIE   LGT SNOW  19  13  77 N13       29.87F WCI   6
NEWBURGH       CLOUDY    19  16  86 NE15G25   29.84  FOG     WCI   5
MONTGOMERY     LGT SNOW  20  17  88 NE22G29   29.83F FOG     WCI   3
WHITE PLAINS   LGT SNOW  24  19  81 N13G23    29.74F VSB 1   WCI  12
ISLIP          SNOW      26  23  88 N25G36    29.66F VSB 1/2 WCI  11
NEW YORK CITY  LGT SNOW  26  22  84 N18G26    29.76F FOG     WCI  13
CENTRAL PARK   LGT SNOW  26  20  77 NE13G26   29.77F VSB 1   WCI  15
$$

NYZ005>009-017-018-044>046-055-056-270400-
CENTRAL


CITY           SKY/WX    TMP DP  RH WIND       PRES   REMARKS
FULTON         CLOUDY    15   8  73 NE7       29.96F WCI   5
SYRACUSE       FLURRIES  18   8  65 NE8       29.94F WCI   8
ROME           CLOUDY    15   6  67 CALM      29.96F
ELMIRA         LGT SNOW  19  15  84 NE3       29.86F FOG
BINGHAMTON     CLOUDY    16  14  92 NE7       29.78F WCI   6
MONTICELLO     CLOUDY    19  16  86 E13G18    29.78F WCI   7
$$

NYZ026>034-041>043-270400-
NORTH


CITY           SKY/WX    TMP DP  RH WIND       PRES   REMARKS
WATERTOWN      CLOUDY     9  -2  61 NE14      30.04F WCI  -7
FORT DRUM      NOT AVBL
MASSENA        MOCLDY     3  -7  63 NE15      30.15F WCI -16
SARANAC LAKE   PTCLDY     3  -5  69 NE8       29.93S WCI -10
PLATTSBURGH    CLOUDY     6  -4  63 N9        30.14F WCI  -8
$$

NYZ001>004-010>016-019>021-270400-
WEST


CITY           SKY/WX    TMP DP  RH WIND       PRES   REMARKS
NIAGARA FALLS  LGT SNOW  17  12  80 NE9       29.94F WCI   6
BUFFALO        LGT SNOW  16  12  84 NE12      29.92F FOG     WCI   3
DUNKIRK        CLOUDY    17  12  80 NE12      29.91S WCI   4
JAMESTOWN      CLOUDY    16  10  79 NE7       29.79S WCI   6
WELLSVILLE     LGT SNOW  13   9  84 NE6       29.79S FOG     WCI   4
ROCHESTER      LGT SNOW  18  13  80 E14       29.95F WCI   4
PENN YAN       LGT SNOW  15  12  88 N5        29.89F FOG     WCI   8
$$

             KEY
       WCI = WIND CHILL INDEX
       VSB = VISIBILITY
       HX  = HEAT INDEX
$$


USA.gov is the U.S. government's official web portal to all federal, state and local government web resources and services.